Regional Weather Roundup
Issued by NWS

Home | Current Version | Previous Version | Text Only | Print | Product List | Glossary Off
Versions: 1 2 3 4 5 6 7 8 9 10 11 12 13 14 15 16 17 18 19 20 21 22 23 24 25 26 27 28 29 30 31 32 33 34 35 36 37 38 39 40 41 42 43 44 45 46 47 48 49 50

389
ASUS44 KJAN 280403
RWRMS

MISSISSIPPI HOURLY WEATHER ROUNDUP
NATIONAL WEATHER SERVICE JACKSON MS
1000 PM CST TUE JAN 27 2015

NOTE: "FAIR: INDICATES FEW OR NO CLOUDS BELOW 12,000 FEET WITH NO
SIGNIFICANT WEATHER AND/OR OBSTRUCTIONS TO VISIBILITY.

MSZ001>002-007>008-010>013-018>021-025>028-034>036-280500-
NORTHWEST MISSISSIPPI

CITY           SKY/WX    TMP DP  RH WIND       PRES   REMARKS
CLARKSDALE     FAIR      39  39 100 CALM      30.22R
CLEVELAND      FAIR      44  40  86 E8        30.19S
GREENWOOD      CLEAR     39  34  82 NE3       30.21R
GREENVILLE     CLEAR     48  39  71 E10       30.18S
GRENADA        FAIR      41  34  75 N6        30.22R
OLIVE BRANCH   CLEAR     39  36  87 E5        30.21F
OXFORD         FAIR      39  32  75 NE3       30.23R
TUNICA         CLEAR     41  36  81 CALM      30.22R
$$

MSZ003>006-009-014>017-022>024-029>033-037>039-280500-
NORTHEAST MISSISSIPPI

CITY           SKY/WX    TMP DP  RH WIND       PRES   REMARKS
COLUMBUS AFB   CLEAR     43  32  65 N7        30.20R
CORINTH        FAIR      39  30  70 NE6       30.21R WCI  35
GOLDN TRIANGLE CLEAR     43  32  65 N7        30.18R
STARKVILLE     FAIR      43  34  70 CALM      30.19R
TUPELO         CLEAR     39  31  72 NE9       30.20F WCI  33
$$

MSZ040-058-280500-
CENTRAL MISSISSIPPI

CITY           SKY/WX    TMP DP  RH WIND       PRES   REMARKS
JACKSON INTL   CLEAR     47  37  68 NE6       30.18S
JACKSON HAWKNS CLEAR     48  38  68 CALM      30.19R
MERIDIAN KEY   CLEAR     40  35  83 CALM      30.18R
MERIDIAN NAS   FAIR      43  33  68 NW5       30.18R
RAYMOND        FAIR      39  36  87 MISG      30.19R
VICKSBURG      CLEAR     47  37  68 NE5       30.18S
$$

MSZ059>079-280500-
SOUTH MISSISSIPPI

CITY           SKY/WX    TMP DP  RH WIND       PRES   REMARKS
BROOKHAVEN     FAIR      45  37  76 CALM      30.19S
HATTIESBURG    CLEAR     44  37  76 CALM      30.18R
MCCOMB         CLEAR     56  34  43 N7        30.17R
NATCHEZ        CLEAR     46  37  71 CALM      30.17S
PINE BELT      CLEAR     52  30  43 N9        30.18R
$$

MSZ080>082-280500-
COASTAL MISSISSIPPI

CITY           SKY/WX    TMP DP  RH WIND       PRES   REMARKS
BILOXI         CLEAR     52  45  78 CALM      30.14R
PASCAGOULA     CLEAR     43  41  93 N3        30.14R
GULFPORT       CLEAR     47  40  76 CALM      30.14R
$$



USA.gov is the U.S. government's official web portal to all federal, state and local government web resources and services.